Defiance, OH

10:00 AM EST on February 11, 2016 (GMT -0500)
Defiance Memorial

Weather History for KDFI - March, 2012

Change the Weather History Date:

Monday, March 5, 2012

  Actual Average Record
Temperature  
Mean Temperature 29 °F -  
Max Temperature 32 °F 46 °F 78 °F (1983)
Min Temperature 26 °F 24 °F -4 °F (1978)
Degree Days  
Heating Degree Days 36    
Moisture  
Dew Point 20 °F    
Average Humidity 69    
Maximum Humidity 85    
Minimum Humidity 52    
Precipitation  
Precipitation 0.00 in - - ()
Sea Level Pressure  
Sea Level Pressure 30.18 in    
Wind  
Wind Speed 7 mph (NNW)    
Max Wind Speed 17 mph    
Max Gust Speed 22 mph    
Visibility 10 miles    
Events Snow    
Averages and records for this station are not official NWS values.
T = Trace of Precipitation, MM = Missing Value Source: NWS Daily Summary

Daily Weather History Graph

Daily Weather History Graph

Search for Another Location

Airport or City:

Trip Planner

Search our weather history database for the weather conditions in past years. The results will help you decide how hot, cold, wet, or windy it might be!

Date:

Astronomy

Mar. 05, 2012 Rise Set
Actual Time 7:05 AM EST 6:33 PM EST
Civil Twilight 6:37 AM EST 7:01 PM EST
Nautical Twilight 6:05 AM EST 7:33 PM EST
Astronomical Twilight 5:33 AM EST 8:05 PM EST
Moon 3:49 PM EST (3/5) 5:05 AM EST (3/5)
Length of Visible Light 12h 23m
Length of Day
11h 28m
Waxing Gibbous, 91% of the Moon is Illuminated
Mar 5
Waxing Gibbous
Mar 8
Full
Mar 14
Last Quarter
Mar 22
New
Mar 30
First Quarter

Hourly Weather History & Observations

Time (EST) Temp. Windchill Dew Point Humidity Pressure Visibility Wind Dir Wind Speed Gust Speed Precip Events Conditions
12:53 AM 30.0 °F - 26.1 °F 85% 29.91 in 9.0 mi Calm Calm - N/A   Overcast
1:17 AM 30.2 °F 24.3 °F 24.8 °F 80% 29.89 in 9.0 mi NW 5.8 mph - N/A   Overcast
1:37 AM 30.2 °F 24.3 °F 24.8 °F 80% 29.90 in 10.0 mi NNW 5.8 mph - N/A   Overcast
1:50 AM 30.2 °F 25.4 °F 24.8 °F 80% 29.90 in 9.0 mi North 4.6 mph - N/A   Overcast
1:53 AM 30.9 °F 26.2 °F 25.0 °F 79% 29.93 in 9.0 mi North 4.6 mph - N/A   Overcast
2:06 AM 30.2 °F 22.6 °F 24.8 °F 80% 29.91 in 7.0 mi North 8.1 mph - N/A   Overcast
2:38 AM 30.2 °F 21.3 °F 24.8 °F 80% 29.92 in 10.0 mi North 10.4 mph - 0.00 in   Overcast
2:53 AM 28.9 °F 19.2 °F 24.1 °F 82% 29.95 in 10.0 mi North 11.5 mph - 0.00 in   Overcast
3:37 AM 28.4 °F 19.7 °F 23.0 °F 80% 29.95 in 10.0 mi North 9.2 mph - N/A   Overcast
3:53 AM 28.9 °F 18.6 °F 23.0 °F 78% 29.98 in 10.0 mi North 12.7 mph - N/A   Overcast
4:53 AM 28.0 °F 18.6 °F 21.9 °F 78% 30.04 in 6.0 mi North 10.4 mph - 0.00 in Snow Light Snow
5:53 AM 27.0 °F 18.7 °F 21.9 °F 81% 30.08 in 10.0 mi NNW 8.1 mph - 0.00 in   Overcast
6:06 AM 26.6 °F 18.2 °F 21.2 °F 80% 30.07 in 10.0 mi North 8.1 mph - N/A   Overcast
6:53 AM 27.0 °F 16.1 °F 19.9 °F 75% 30.14 in 10.0 mi NW 12.7 mph - N/A   Overcast
7:08 AM 26.6 °F 16.8 °F 19.4 °F 74% 30.12 in 10.0 mi NNW 10.4 mph - N/A   Overcast
7:53 AM 26.1 °F 16.2 °F 19.0 °F 75% 30.19 in 10.0 mi NW 10.4 mph - N/A   Mostly Cloudy
8:53 AM 28.0 °F 19.3 °F 18.0 °F 66% 30.23 in 10.0 mi NNW 9.2 mph - N/A   Clear
9:53 AM 28.0 °F 15.7 °F 15.1 °F 58% 30.27 in 10.0 mi NW 17.3 mph 21.9 mph N/A   Partly Cloudy
10:53 AM 28.9 °F 18.2 °F 16.0 °F 58% 30.30 in 10.0 mi North 13.8 mph 20.7 mph N/A   Clear
11:53 AM 30.0 °F 20.0 °F 15.1 °F 54% 30.33 in 10.0 mi NW 12.7 mph - N/A   Mostly Cloudy
12:53 PM 30.9 °F 21.2 °F 16.0 °F 54% 30.35 in 10.0 mi NW 12.7 mph 18.4 mph N/A   Overcast
1:53 PM 32.0 °F 24.2 °F 16.0 °F 52% 30.36 in 10.0 mi WNW 9.2 mph 17.3 mph N/A   Overcast
2:53 PM 32.0 °F 25.6 °F 16.0 °F 52% 30.37 in 10.0 mi Variable 6.9 mph 19.6 mph N/A   Overcast
3:53 PM 32.0 °F 24.8 °F 17.1 °F 54% 30.39 in 10.0 mi WNW 8.1 mph - N/A   Overcast
4:53 PM 32.0 °F 27.5 °F 17.1 °F 54% 30.40 in 10.0 mi Variable 4.6 mph - N/A   Overcast
5:53 PM 30.9 °F 26.2 °F 17.1 °F 57% 30.41 in 10.0 mi WSW 4.6 mph - N/A   Mostly Cloudy
6:53 PM 30.0 °F - 17.1 °F 59% 30.42 in 10.0 mi Calm Calm - N/A   Scattered Clouds
7:53 PM 28.0 °F - 18.0 °F 66% 30.43 in 10.0 mi Calm Calm - N/A   Clear
8:53 PM 28.9 °F - 18.0 °F 64% 30.41 in 10.0 mi Calm Calm - N/A   Clear
9:53 PM 30.0 °F - 19.0 °F 64% 30.43 in 10.0 mi Calm Calm - N/A   Partly Cloudy
10:53 PM 30.0 °F 26.5 °F 19.9 °F 66% 30.44 in 10.0 mi South 3.5 mph - N/A   Overcast
11:53 PM 30.9 °F 24.3 °F 19.9 °F 64% 30.43 in 10.0 mi South 6.9 mph - N/A   Overcast